Year,Month,Day,Hour,Minute,Value (Times are PST for windspeed in km/hr)
2007,11,12,00,00,5.80
2007,11,12,00,01,3.30
2007,11,12,00,02,3.90
2007,11,12,00,03,6.10
2007,11,12,00,04,8.10
2007,11,12,00,05,8.20
2007,11,12,00,06,7.60
2007,11,12,00,07,4.90
2007,11,12,00,08,5.60
2007,11,12,00,09,11.50
2007,11,12,00,10,7.40
2007,11,12,00,11,7.00
2007,11,12,00,12,5.70
2007,11,12,00,13,5.60
2007,11,12,00,14,7.30
2007,11,12,00,15,8.50
2007,11,12,00,16,9.40
2007,11,12,00,17,5.60
2007,11,12,00,18,7.20
2007,11,12,00,19,7.10
2007,11,12,00,20,10.00
2007,11,12,00,21,14.10
2007,11,12,00,22,12.40
2007,11,12,00,23,10.20
2007,11,12,00,24,7.10
2007,11,12,00,25,5.10
2007,11,12,00,26,7.20
2007,11,12,00,27,7.30
2007,11,12,00,28,7.20
2007,11,12,00,29,9.10
2007,11,12,00,30,9.10
2007,11,12,00,31,5.30
2007,11,12,00,32,6.40
2007,11,12,00,33,12.00
2007,11,12,00,34,6.40
2007,11,12,00,35,7.70
2007,11,12,00,36,8.70
2007,11,12,00,37,9.30
2007,11,12,00,38,3.30
2007,11,12,00,39,9.10
2007,11,12,00,40,9.80
2007,11,12,00,41,12.60
2007,11,12,00,42,12.50
2007,11,12,00,43,5.30
2007,11,12,00,44,9.80
2007,11,12,00,45,7.10
2007,11,12,00,46,5.30
2007,11,12,00,47,8.00
2007,11,12,00,48,12.20
2007,11,12,00,49,9.70
2007,11,12,00,50,9.10
2007,11,12,00,51,8.40
2007,11,12,00,52,7.30
2007,11,12,00,53,7.30
2007,11,12,00,54,10.50
2007,11,12,00,55,7.80
2007,11,12,00,56,10.60
2007,11,12,00,57,7.70
2007,11,12,00,58,9.00
2007,11,12,00,59,5.60
2007,11,12,01,00,4.30
2007,11,12,01,01,11.70
2007,11,12,01,02,11.50
2007,11,12,01,03,6.40
2007,11,12,01,04,5.60
2007,11,12,01,05,2.60
2007,11,12,01,06,2.60
2007,11,12,01,07,3.50
2007,11,12,01,08,3.40
2007,11,12,01,09,3.30
2007,11,12,01,10,3.50
2007,11,12,01,11,4.50
2007,11,12,01,12,3.80
2007,11,12,01,13,2.50
2007,11,12,01,14,5.70
2007,11,12,01,15,8.80
2007,11,12,01,16,14.20
2007,11,12,01,17,9.80
2007,11,12,01,18,9.70
2007,11,12,01,19,5.50
2007,11,12,01,20,13.60
2007,11,12,01,21,7.90
2007,11,12,01,22,7.00
2007,11,12,01,23,5.60
2007,11,12,01,24,8.40
2007,11,12,01,25,8.50
2007,11,12,01,26,4.50
2007,11,12,01,27,3.50
2007,11,12,01,28,3.60
2007,11,12,01,29,2.60
2007,11,12,01,30,4.70
2007,11,12,01,31,3.50
2007,11,12,01,32,9.30
2007,11,12,01,33,6.50
2007,11,12,01,34,4.20
2007,11,12,01,35,6.60
2007,11,12,01,36,6.40
2007,11,12,01,37,6.50
2007,11,12,01,38,6.90
2007,11,12,01,39,6.50
2007,11,12,01,40,5.20
2007,11,12,01,41,12.00
2007,11,12,01,42,9.70
2007,11,12,01,43,4.60
2007,11,12,01,44,5.10
2007,11,12,01,45,6.40
2007,11,12,01,46,14.20
2007,11,12,01,47,10.80
2007,11,12,01,48,8.90
2007,11,12,01,49,6.10
2007,11,12,01,50,6.80
2007,11,12,01,51,5.80
2007,11,12,01,52,1.40
2007,11,12,01,53,1.00
2007,11,12,01,54,0.60
2007,11,12,01,55,1.50
2007,11,12,01,56,3.40
2007,11,12,01,57,4.70
2007,11,12,01,58,2.30
2007,11,12,01,59,2.10
2007,11,12,02,00,5.30
2007,11,12,02,01,9.70
2007,11,12,02,02,4.20
2007,11,12,02,03,5.00
2007,11,12,02,04,8.80
2007,11,12,02,05,7.80
2007,11,12,02,06,9.30
2007,11,12,02,07,2.80
2007,11,12,02,08,2.60
2007,11,12,02,09,5.10
2007,11,12,02,10,6.10
2007,11,12,02,11,11.30
2007,11,12,02,12,5.90
2007,11,12,02,13,9.90
2007,11,12,02,14,8.80
2007,11,12,02,15,9.00
2007,11,12,02,16,10.60
2007,11,12,02,17,11.80
2007,11,12,02,18,10.00
2007,11,12,02,19,13.80
2007,11,12,02,20,5.10
2007,11,12,02,21,7.20
2007,11,12,02,22,9.40
2007,11,12,02,23,7.00
2007,11,12,02,24,3.50
2007,11,12,02,25,7.80
2007,11,12,02,26,11.80
2007,11,12,02,27,4.90
2007,11,12,02,28,8.00
2007,11,12,02,29,12.40
2007,11,12,02,30,6.40
2007,11,12,02,31,15.00
2007,11,12,02,32,9.10
2007,11,12,02,33,12.80
2007,11,12,02,34,4.80
2007,11,12,02,35,6.60
2007,11,12,02,36,8.70
2007,11,12,02,37,10.50
2007,11,12,02,38,15.70
2007,11,12,02,39,11.00
2007,11,12,02,40,8.20
2007,11,12,02,41,5.80
2007,11,12,02,42,6.90
2007,11,12,02,43,8.50
2007,11,12,02,44,10.50
2007,11,12,02,45,6.70
2007,11,12,02,46,8.70
2007,11,12,02,47,10.00
2007,11,12,02,48,11.90
2007,11,12,02,49,8.00
2007,11,12,02,50,12.00
2007,11,12,02,51,10.50
2007,11,12,02,52,6.90
2007,11,12,02,53,7.60
2007,11,12,02,54,6.80
2007,11,12,02,55,8.90
2007,11,12,02,56,7.80
2007,11,12,02,57,8.00
2007,11,12,02,58,14.70
2007,11,12,02,59,12.20
2007,11,12,03,00,13.50
2007,11,12,03,01,7.60
2007,11,12,03,02,9.00
2007,11,12,03,03,8.00
2007,11,12,03,04,5.20
2007,11,12,03,05,4.90
2007,11,12,03,06,5.90
2007,11,12,03,07,7.60
2007,11,12,03,08,6.60
2007,11,12,03,09,10.70
2007,11,12,03,10,8.40
2007,11,12,03,11,12.50
2007,11,12,03,12,5.50
2007,11,12,03,13,9.10
2007,11,12,03,14,6.00
2007,11,12,03,15,5.10
2007,11,12,03,16,5.60
2007,11,12,03,17,9.50
2007,11,12,03,18,5.70
2007,11,12,03,19,6.60
2007,11,12,03,20,7.40
2007,11,12,03,21,4.60
2007,11,12,03,22,3.60
2007,11,12,03,23,7.20
2007,11,12,03,24,7.70
2007,11,12,03,25,4.60
2007,11,12,03,26,3.20
2007,11,12,03,27,4.80
2007,11,12,03,28,5.50
2007,11,12,03,29,7.40
2007,11,12,03,30,8.90
2007,11,12,03,31,3.90
2007,11,12,03,32,1.90
2007,11,12,03,33,3.20
2007,11,12,03,34,6.00
2007,11,12,03,35,11.40
2007,11,12,03,36,9.40
2007,11,12,03,37,5.60
2007,11,12,03,38,8.30
2007,11,12,03,39,8.90
2007,11,12,03,40,5.90
2007,11,12,03,41,0.60
2007,11,12,03,42,3.90
2007,11,12,03,43,9.30
2007,11,12,03,44,6.60
2007,11,12,03,45,6.40
2007,11,12,03,46,6.40
2007,11,12,03,47,6.40
2007,11,12,03,48,6.40
2007,11,12,03,49,8.80
2007,11,12,03,50,10.80
2007,11,12,03,51,6.70
2007,11,12,03,52,2.40
2007,11,12,03,53,1.00
2007,11,12,03,54,0.40
2007,11,12,03,55,3.30
2007,11,12,03,56,2.00
2007,11,12,03,57,0.30
2007,11,12,03,58,0.60
2007,11,12,03,59,0.00
2007,11,12,04,00,0.00
2007,11,12,04,01,0.00
2007,11,12,04,02,1.50
2007,11,12,04,03,2.90
2007,11,12,04,04,2.40
2007,11,12,04,05,0.50
2007,11,12,04,06,1.70
2007,11,12,04,07,0.10
2007,11,12,04,08,1.00
2007,11,12,04,09,0.30
2007,11,12,04,10,0.00
2007,11,12,04,11,0.10
2007,11,12,04,12,0.00
2007,11,12,04,13,0.00
2007,11,12,04,14,0.10
2007,11,12,04,15,1.50
2007,11,12,04,16,0.60
2007,11,12,04,17,0.00
2007,11,12,04,18,0.00
2007,11,12,04,19,0.20
2007,11,12,04,20,0.20
2007,11,12,04,21,0.20
2007,11,12,04,22,1.20
2007,11,12,04,23,0.20
2007,11,12,04,24,0.00
2007,11,12,04,25,0.00
2007,11,12,04,26,0.20
2007,11,12,04,27,3.80
2007,11,12,04,28,1.40
2007,11,12,04,29,0.10
2007,11,12,04,30,0.00
2007,11,12,04,31,0.40
2007,11,12,04,32,1.60
2007,11,12,04,33,2.60
2007,11,12,04,34,1.30
2007,11,12,04,35,2.60
2007,11,12,04,36,1.60
2007,11,12,04,37,5.00
2007,11,12,04,38,3.50
2007,11,12,04,39,5.40
2007,11,12,04,40,3.70
2007,11,12,04,41,3.30
2007,11,12,04,42,2.10
2007,11,12,04,43,1.70
2007,11,12,04,44,0.80
2007,11,12,04,45,1.90
2007,11,12,04,46,1.90
2007,11,12,04,47,0.10
2007,11,12,04,48,1.30
2007,11,12,04,49,1.00
2007,11,12,04,50,3.40
2007,11,12,04,51,9.30
2007,11,12,04,52,12.00
2007,11,12,04,53,9.40
2007,11,12,04,54,9.70
2007,11,12,04,55,6.50
2007,11,12,04,56,5.40
2007,11,12,04,57,3.60
2007,11,12,04,58,2.70
2007,11,12,04,59,3.00
2007,11,12,05,00,8.80
2007,11,12,05,01,6.70
2007,11,12,05,02,8.00
2007,11,12,05,03,11.90
2007,11,12,05,04,5.20
2007,11,12,05,05,7.00
2007,11,12,05,06,6.00
2007,11,12,05,07,6.10
2007,11,12,05,08,3.50
2007,11,12,05,09,4.80
2007,11,12,05,10,10.30
2007,11,12,05,11,7.70
2007,11,12,05,12,11.10
2007,11,12,05,13,7.40
2007,11,12,05,14,4.20
2007,11,12,05,15,8.20
2007,11,12,05,16,6.30
2007,11,12,05,17,11.30
2007,11,12,05,18,9.20
2007,11,12,05,19,7.10
2007,11,12,05,20,12.40
2007,11,12,05,21,7.30
2007,11,12,05,22,11.90
2007,11,12,05,23,11.30
2007,11,12,05,24,15.80
2007,11,12,05,25,8.90
2007,11,12,05,26,16.80
2007,11,12,05,27,14.20
2007,11,12,05,28,10.10
2007,11,12,05,29,8.80
2007,11,12,05,30,16.80
2007,11,12,05,31,18.70
2007,11,12,05,32,5.80
2007,11,12,05,33,4.60
2007,11,12,05,34,11.30
2007,11,12,05,35,10.10
2007,11,12,05,36,11.80
2007,11,12,05,37,14.60
2007,11,12,05,38,14.90
2007,11,12,05,39,10.60
2007,11,12,05,40,11.10
2007,11,12,05,41,13.30
2007,11,12,05,42,11.50
2007,11,12,05,43,15.30
2007,11,12,05,44,13.50
2007,11,12,05,45,10.20
2007,11,12,05,46,11.00
2007,11,12,05,47,17.80
2007,11,12,05,48,13.10
2007,11,12,05,49,16.60
2007,11,12,05,50,17.90
2007,11,12,05,51,10.90
2007,11,12,05,52,10.70
2007,11,12,05,53,12.20
2007,11,12,05,54,12.60
2007,11,12,05,55,11.00
2007,11,12,05,56,8.90
2007,11,12,05,57,9.40
2007,11,12,05,58,8.00
2007,11,12,05,59,10.50
2007,11,12,06,00,17.00
2007,11,12,06,01,8.40
2007,11,12,06,02,17.60
2007,11,12,06,03,22.60
2007,11,12,06,04,16.80
2007,11,12,06,05,7.50
2007,11,12,06,06,6.80
2007,11,12,06,07,13.00
2007,11,12,06,08,24.90
2007,11,12,06,09,17.90
2007,11,12,06,10,12.20
2007,11,12,06,11,21.20
2007,11,12,06,12,20.30
2007,11,12,06,13,10.40
2007,11,12,06,14,21.00
2007,11,12,06,15,9.00
2007,11,12,06,16,25.40
2007,11,12,06,17,15.20
2007,11,12,06,18,8.30
2007,11,12,06,19,11.30
2007,11,12,06,20,7.80
2007,11,12,06,21,6.00
2007,11,12,06,22,16.00
2007,11,12,06,23,22.20
2007,11,12,06,24,30.20
2007,11,12,06,25,11.60
2007,11,12,06,26,4.80
2007,11,12,06,27,14.70
2007,11,12,06,28,8.00
2007,11,12,06,29,9.00
2007,11,12,06,30,18.20
2007,11,12,06,31,10.90
2007,11,12,06,32,5.60
2007,11,12,06,33,8.60
2007,11,12,06,34,15.40
2007,11,12,06,35,20.20
2007,11,12,06,36,10.80
2007,11,12,06,37,5.10
2007,11,12,06,38,12.20
2007,11,12,06,39,9.90
2007,11,12,06,40,11.00
2007,11,12,06,41,14.00
2007,11,12,06,42,11.00
2007,11,12,06,43,15.60
2007,11,12,06,44,15.00
2007,11,12,06,45,8.10
2007,11,12,06,46,5.80
2007,11,12,06,47,12.80
2007,11,12,06,48,12.20
2007,11,12,06,49,13.50
2007,11,12,06,50,19.90
2007,11,12,06,51,7.60
2007,11,12,06,52,10.50
2007,11,12,06,53,9.20
2007,11,12,06,54,7.60
2007,11,12,06,55,14.10
2007,11,12,06,56,14.80
2007,11,12,06,57,9.70
2007,11,12,06,58,15.60
2007,11,12,06,59,6.30
2007,11,12,07,00,13.00
2007,11,12,07,01,4.40
2007,11,12,07,02,12.30
2007,11,12,07,03,7.70
2007,11,12,07,04,5.70
2007,11,12,07,05,13.80
2007,11,12,07,06,8.60
2007,11,12,07,07,19.70
2007,11,12,07,08,9.20
2007,11,12,07,09,16.40
2007,11,12,07,10,15.70
2007,11,12,07,11,12.50
2007,11,12,07,12,9.30
2007,11,12,07,13,15.70
2007,11,12,07,14,10.80
2007,11,12,07,15,3.80
2007,11,12,07,16,8.20
2007,11,12,07,17,9.30
2007,11,12,07,18,10.90
2007,11,12,07,19,11.30
2007,11,12,07,20,9.30
2007,11,12,07,21,7.60
2007,11,12,07,22,6.30
2007,11,12,07,23,17.20
2007,11,12,07,24,24.50
2007,11,12,07,25,14.20
2007,11,12,07,26,10.50
2007,11,12,07,27,9.70
2007,11,12,07,28,13.90
2007,11,12,07,29,14.90
2007,11,12,07,30,8.50
2007,11,12,07,31,23.90
2007,11,12,07,32,13.30
2007,11,12,07,33,9.60
2007,11,12,07,34,15.10
2007,11,12,07,35,15.20
2007,11,12,07,36,21.20
2007,11,12,07,37,19.60
2007,11,12,07,38,17.10
2007,11,12,07,39,19.30
2007,11,12,07,40,9.00
2007,11,12,07,41,12.70
2007,11,12,07,42,8.40
2007,11,12,07,43,8.70
2007,11,12,07,44,17.80
2007,11,12,07,45,11.60
2007,11,12,07,46,11.30
2007,11,12,07,47,13.10
2007,11,12,07,48,19.00
2007,11,12,07,49,21.60
2007,11,12,07,50,14.80
2007,11,12,09,04,19.30
2007,11,12,09,05,21.10
2007,11,12,09,06,11.80
2007,11,12,09,07,14.90
2007,11,12,09,08,11.70
2007,11,12,09,09,19.10
2007,11,12,09,10,15.70
2007,11,12,09,11,9.90
2007,11,12,09,12,7.10
2007,11,12,09,13,5.80
2007,11,12,09,14,6.70
2007,11,12,09,15,6.00
2007,11,12,09,16,4.80
2007,11,12,09,17,9.70
2007,11,12,09,18,6.60
2007,11,12,09,19,4.90
2007,11,12,09,20,9.30
2007,11,12,09,21,9.30
2007,11,12,09,22,5.60
2007,11,12,09,23,7.30
2007,11,12,09,24,7.10
2007,11,12,09,25,11.40
2007,11,12,09,26,11.40
2007,11,12,09,27,8.40
2007,11,12,09,28,7.20
2007,11,12,09,29,6.10
2007,11,12,09,30,13.90
2007,11,12,09,31,8.40
2007,11,12,09,32,12.80
2007,11,12,09,33,12.40
2007,11,12,09,34,15.60
2007,11,12,09,35,12.30
2007,11,12,09,36,11.40
2007,11,12,09,37,11.30
2007,11,12,09,38,15.30
2007,11,12,09,39,13.20
2007,11,12,09,40,14.50
2007,11,12,09,41,12.30
2007,11,12,09,42,13.40
2007,11,12,09,43,10.20
2007,11,12,09,44,15.60
2007,11,12,09,45,10.10
2007,11,12,09,46,10.70
2007,11,12,09,47,13.10
2007,11,12,09,48,15.80
2007,11,12,09,49,10.10
2007,11,12,09,50,15.20
2007,11,12,09,51,15.40
2007,11,12,09,52,12.20
2007,11,12,09,53,14.50
2007,11,12,09,54,16.10
2007,11,12,09,55,17.00
2007,11,12,09,56,11.20
2007,11,12,09,57,5.30
2007,11,12,09,58,11.40
2007,11,12,09,59,11.00
2007,11,12,10,00,9.10
2007,11,12,10,01,24.10
2007,11,12,10,02,15.00
2007,11,12,10,03,15.30
2007,11,12,10,04,12.10
2007,11,12,10,05,12.00
2007,11,12,10,06,11.60
2007,11,12,10,07,11.10
2007,11,12,10,08,18.20
2007,11,12,10,09,18.30
2007,11,12,10,10,14.30
2007,11,12,10,11,8.70
2007,11,12,10,12,9.00
2007,11,12,10,13,18.10
2007,11,12,10,14,14.80
2007,11,12,10,15,9.40
2007,11,12,10,16,8.00
2007,11,12,10,17,8.50
2007,11,12,10,18,17.50
2007,11,12,10,19,17.00
2007,11,12,10,20,15.20
2007,11,12,10,21,11.80
2007,11,12,10,22,14.60
2007,11,12,10,23,9.30
2007,11,12,10,24,13.00
2007,11,12,10,25,18.20
2007,11,12,10,26,12.90
2007,11,12,10,27,10.10
2007,11,12,10,28,13.70
2007,11,12,10,29,8.50
2007,11,12,10,30,6.90
2007,11,12,10,31,16.10
2007,11,12,10,32,7.10
2007,11,12,10,33,6.90
2007,11,12,10,34,8.00
2007,11,12,10,35,8.10
2007,11,12,10,36,13.60
2007,11,12,10,37,10.50
2007,11,12,10,38,14.00
2007,11,12,10,39,10.30
2007,11,12,10,40,9.30
2007,11,12,10,41,16.50
2007,11,12,10,42,8.50
2007,11,12,10,43,15.90
2007,11,12,10,44,15.00
2007,11,12,10,45,14.50
2007,11,12,10,46,12.90
2007,11,12,10,47,7.60
2007,11,12,10,48,9.50
2007,11,12,10,49,16.00
2007,11,12,10,50,18.10
2007,11,12,10,51,17.00
2007,11,12,10,52,11.80
2007,11,12,10,53,13.30
2007,11,12,10,54,11.00
2007,11,12,10,55,14.40
2007,11,12,10,56,6.80
2007,11,12,10,57,6.40
2007,11,12,10,58,10.20
2007,11,12,10,59,15.00
2007,11,12,11,00,8.50
2007,11,12,11,01,7.50
2007,11,12,11,02,11.10
2007,11,12,11,03,9.60
2007,11,12,11,04,8.50
2007,11,12,11,05,8.60
2007,11,12,11,06,3.90
2007,11,12,11,07,9.40
2007,11,12,11,08,10.00
2007,11,12,11,09,9.40
2007,11,12,11,10,4.80
2007,11,12,11,11,0.60
2007,11,12,11,12,2.20
2007,11,12,11,13,3.50
2007,11,12,11,14,1.10
2007,11,12,11,15,2.10
2007,11,12,11,16,4.20
2007,11,12,11,17,1.90
2007,11,12,11,18,0.00
2007,11,12,11,19,0.00
2007,11,12,11,20,0.10
2007,11,12,11,21,0.20
2007,11,12,11,22,0.20
2007,11,12,11,23,0.00
2007,11,12,11,24,1.00
2007,11,12,11,25,1.10
2007,11,12,11,26,1.50
2007,11,12,11,27,0.30
2007,11,12,11,28,0.00
2007,11,12,11,29,2.50
2007,11,12,11,30,1.50
2007,11,12,11,31,1.60
2007,11,12,11,32,2.40
2007,11,12,11,33,2.00
2007,11,12,11,34,4.90
2007,11,12,11,35,3.60
2007,11,12,11,36,3.70
2007,11,12,11,37,3.90
2007,11,12,11,38,6.00
2007,11,12,11,39,3.60
2007,11,12,11,40,3.00
2007,11,12,11,41,3.30
2007,11,12,11,42,3.10
2007,11,12,11,43,1.50
2007,11,12,11,44,0.80
2007,11,12,11,45,1.80
2007,11,12,11,46,1.30
2007,11,12,11,47,2.20
2007,11,12,11,48,4.90
2007,11,12,11,49,0.60
2007,11,12,11,50,2.20
2007,11,12,11,51,1.60
2007,11,12,11,52,0.20
2007,11,12,11,53,2.60
2007,11,12,11,54,2.30
2007,11,12,11,55,1.80
2007,11,12,11,56,2.10
2007,11,12,11,57,1.70
2007,11,12,11,58,2.70
2007,11,12,11,59,2.40
2007,11,12,12,00,5.60
2007,11,12,12,01,1.60
2007,11,12,12,02,1.20
2007,11,12,12,03,1.90
2007,11,12,12,04,2.30
2007,11,12,12,05,2.60
2007,11,12,12,06,1.10
2007,11,12,12,07,4.80
2007,11,12,12,08,3.80
2007,11,12,12,09,0.20
2007,11,12,12,10,0.00
2007,11,12,12,11,2.70
2007,11,12,12,12,3.10
2007,11,12,12,13,3.00
2007,11,12,12,14,1.50
2007,11,12,12,15,0.70
2007,11,12,12,16,5.90
2007,11,12,12,17,4.80
2007,11,12,12,18,3.70
2007,11,12,12,19,4.80
2007,11,12,12,20,2.30
2007,11,12,12,21,1.60
2007,11,12,12,22,2.20
2007,11,12,12,23,4.70
2007,11,12,12,24,2.40
2007,11,12,12,25,5.00
2007,11,12,12,26,12.90
2007,11,12,12,27,11.50
2007,11,12,12,28,3.40
2007,11,12,12,29,3.20
2007,11,12,12,30,5.40
2007,11,12,12,31,3.50
2007,11,12,12,32,3.10
2007,11,12,12,33,4.00
2007,11,12,12,34,4.00
2007,11,12,12,35,2.70
2007,11,12,12,36,3.20
2007,11,12,12,37,1.50
2007,11,12,12,38,4.80
2007,11,12,12,39,5.60
2007,11,12,12,40,4.40
2007,11,12,12,41,2.10
2007,11,12,12,42,2.40
2007,11,12,12,43,0.60
2007,11,12,12,44,2.10
2007,11,12,12,45,3.80
2007,11,12,12,46,2.80
2007,11,12,12,47,5.20
2007,11,12,12,48,5.20
2007,11,12,12,49,3.90
2007,11,12,12,50,2.50
2007,11,12,12,51,3.50
2007,11,12,12,52,5.20
2007,11,12,12,53,2.80
2007,11,12,12,54,4.90
2007,11,12,12,55,3.60
2007,11,12,12,56,1.80
2007,11,12,12,57,3.60
2007,11,12,12,58,6.20
2007,11,12,12,59,5.50
2007,11,12,13,00,3.30
2007,11,12,13,01,2.90
2007,11,12,13,02,1.90
2007,11,12,13,03,1.40
2007,11,12,13,04,0.80
2007,11,12,13,05,6.50
2007,11,12,13,06,9.70
2007,11,12,13,07,9.90
2007,11,12,13,08,3.10
2007,11,12,13,09,1.40
2007,11,12,13,10,3.30
2007,11,12,13,11,3.90
2007,11,12,13,12,1.40
2007,11,12,13,13,4.40
2007,11,12,13,14,0.30
2007,11,12,13,15,3.30
2007,11,12,13,16,5.20
2007,11,12,13,17,6.70
2007,11,12,13,18,3.40
2007,11,12,13,19,1.80
2007,11,12,13,20,2.60
2007,11,12,13,21,1.10
2007,11,12,13,22,1.90
2007,11,12,13,23,5.10
2007,11,12,13,24,6.80
2007,11,12,13,25,6.60
2007,11,12,13,26,2.90
2007,11,12,13,27,4.30
2007,11,12,13,28,2.90
2007,11,12,13,29,5.20
2007,11,12,13,30,7.10
2007,11,12,13,31,4.10
2007,11,12,13,32,10.30
2007,11,12,13,33,12.40
2007,11,12,13,34,10.70
2007,11,12,13,35,8.70
2007,11,12,13,36,3.50
2007,11,12,13,37,7.20
2007,11,12,13,38,5.40
2007,11,12,13,39,4.50
2007,11,12,13,40,5.30
2007,11,12,13,41,3.00
2007,11,12,13,42,5.20
2007,11,12,13,43,2.10
2007,11,12,13,44,5.10
2007,11,12,13,45,11.70
2007,11,12,13,46,2.40
2007,11,12,13,47,2.90
2007,11,12,13,48,4.70
2007,11,12,13,49,10.60
2007,11,12,13,50,5.80
2007,11,12,13,51,2.40
2007,11,12,13,52,4.20
2007,11,12,13,53,4.00
2007,11,12,13,54,6.40
2007,11,12,13,55,8.10
2007,11,12,13,56,10.50
2007,11,12,13,57,9.50
2007,11,12,13,58,7.50
2007,11,12,13,59,5.60
2007,11,12,14,00,8.20
2007,11,12,14,01,3.10
2007,11,12,14,02,1.60
2007,11,12,14,03,2.30
2007,11,12,14,04,5.50
2007,11,12,14,05,2.40
2007,11,12,14,06,0.00
2007,11,12,14,07,0.80
2007,11,12,14,08,1.40
2007,11,12,14,09,1.60
2007,11,12,14,10,6.70
2007,11,12,14,11,5.00
2007,11,12,14,12,3.70
2007,11,12,14,13,1.50
2007,11,12,14,14,7.90
2007,11,12,14,15,4.20
2007,11,12,14,16,4.10
2007,11,12,14,17,4.40
2007,11,12,14,18,3.10
2007,11,12,14,19,3.00
2007,11,12,14,20,1.20
2007,11,12,14,21,3.10
2007,11,12,14,22,5.10
2007,11,12,14,23,4.30
2007,11,12,14,24,3.60
2007,11,12,14,25,2.50
2007,11,12,14,26,3.10
2007,11,12,14,27,1.70
2007,11,12,14,28,1.40
2007,11,12,14,29,7.50
2007,11,12,14,30,6.10
2007,11,12,14,31,8.80
2007,11,12,14,32,4.10
2007,11,12,14,33,7.90
2007,11,12,14,34,4.10
2007,11,12,14,35,5.20
2007,11,12,14,36,8.20
2007,11,12,14,37,3.70
2007,11,12,14,38,2.40
2007,11,12,14,39,6.00
2007,11,12,14,40,15.30
2007,11,12,14,41,3.50
2007,11,12,14,42,2.30
2007,11,12,14,43,6.00
2007,11,12,14,44,12.20
2007,11,12,14,45,11.00
2007,11,12,14,46,9.90
2007,11,12,14,47,4.40
2007,11,12,14,48,4.60
2007,11,12,14,49,4.00
2007,11,12,14,50,2.20
2007,11,12,14,51,6.40
2007,11,12,14,52,7.60
2007,11,12,14,53,14.00
2007,11,12,14,54,14.20
2007,11,12,14,55,7.90
2007,11,12,14,56,2.50
2007,11,12,14,57,4.30
2007,11,12,14,58,9.60
2007,11,12,14,59,16.30
2007,11,12,15,00,5.20
2007,11,12,15,01,7.60
2007,11,12,15,02,9.70
2007,11,12,15,03,4.70
2007,11,12,15,04,6.00
2007,11,12,15,05,8.60
2007,11,12,15,06,6.90
2007,11,12,15,07,3.50
2007,11,12,15,08,4.30
2007,11,12,15,09,9.80
2007,11,12,15,10,11.40
2007,11,12,15,11,7.50
2007,11,12,15,12,13.90
2007,11,12,15,13,5.70
2007,11,12,15,14,5.30
2007,11,12,15,15,4.20
2007,11,12,15,16,4.60
2007,11,12,15,17,6.70
2007,11,12,15,18,3.80
2007,11,12,15,19,5.60
2007,11,12,15,20,5.70
2007,11,12,15,21,8.00
2007,11,12,15,22,6.50
2007,11,12,15,23,4.00
2007,11,12,15,24,1.10
2007,11,12,15,25,2.00
2007,11,12,15,26,3.90
2007,11,12,15,27,3.10
2007,11,12,15,28,5.70
2007,11,12,15,29,6.00
2007,11,12,15,30,5.30
2007,11,12,15,31,6.40
2007,11,12,15,32,10.40
2007,11,12,15,33,6.70
2007,11,12,15,34,4.20
2007,11,12,15,35,6.40
2007,11,12,15,36,2.90
2007,11,12,15,37,4.60
2007,11,12,15,38,5.20
2007,11,12,15,39,4.50
2007,11,12,15,40,5.40
2007,11,12,15,41,7.20
2007,11,12,15,42,9.20
2007,11,12,15,43,4.40
2007,11,12,15,44,6.30
2007,11,12,15,45,5.10
2007,11,12,15,46,2.00
2007,11,12,15,47,2.20
2007,11,12,15,48,6.70
2007,11,12,15,49,5.60
2007,11,12,15,50,5.60
2007,11,12,15,51,4.80
2007,11,12,15,52,0.30
2007,11,12,15,53,2.10
2007,11,12,15,54,2.70
2007,11,12,15,55,4.40
2007,11,12,15,56,6.80
2007,11,12,15,57,5.60
2007,11,12,15,58,7.00
2007,11,12,15,59,4.80
2007,11,12,16,00,4.50
2007,11,12,16,01,5.90
2007,11,12,16,02,18.80
2007,11,12,16,03,3.00
2007,11,12,16,04,3.80
2007,11,12,16,05,5.00
2007,11,12,16,06,4.10
2007,11,12,16,07,10.20
2007,11,12,16,08,7.60
2007,11,12,16,09,6.40
2007,11,12,16,10,5.60
2007,11,12,16,11,6.40
2007,11,12,16,12,5.80
2007,11,12,16,13,12.50
2007,11,12,16,14,6.00
2007,11,12,16,15,7.40
2007,11,12,16,16,3.20
2007,11,12,16,17,7.70
2007,11,12,16,18,7.40
2007,11,12,16,19,11.90
2007,11,12,16,20,5.50
2007,11,12,16,21,6.30
2007,11,12,16,22,7.20
2007,11,12,16,23,4.00
2007,11,12,16,24,9.40
2007,11,12,16,25,3.10
2007,11,12,16,26,4.00
2007,11,12,16,27,2.50
2007,11,12,16,28,8.90
2007,11,12,16,29,12.50
2007,11,12,16,30,8.70
2007,11,12,16,31,7.30
2007,11,12,16,32,9.60
2007,11,12,16,33,11.60
2007,11,12,16,34,7.90
2007,11,12,16,35,14.50
2007,11,12,16,36,7.30
2007,11,12,16,37,10.50
2007,11,12,16,38,13.70
2007,11,12,16,39,10.60
2007,11,12,16,40,5.80
2007,11,12,16,41,8.30
2007,11,12,16,42,5.70
2007,11,12,16,43,6.70
2007,11,12,16,44,6.30
2007,11,12,16,45,16.60
2007,11,12,16,46,7.60
2007,11,12,16,47,9.50
2007,11,12,16,48,8.80
2007,11,12,16,49,3.50
2007,11,12,16,50,5.30
2007,11,12,16,51,4.00
2007,11,12,16,52,2.30
2007,11,12,16,53,6.60
2007,11,12,16,54,10.70
2007,11,12,16,55,7.90
2007,11,12,16,56,7.90
2007,11,12,16,57,9.30
2007,11,12,16,58,9.60
2007,11,12,16,59,8.90
2007,11,12,17,00,6.60
2007,11,12,17,01,4.50
2007,11,12,17,02,3.60
2007,11,12,17,03,1.50
2007,11,12,17,04,0.10
2007,11,12,17,05,3.60
2007,11,12,17,06,3.10
2007,11,12,17,07,6.70
2007,11,12,17,08,8.00
2007,11,12,17,09,4.70
2007,11,12,17,10,1.90
2007,11,12,17,11,4.30
2007,11,12,17,12,3.00
2007,11,12,17,13,2.00
2007,11,12,17,14,3.00
2007,11,12,17,15,2.70
2007,11,12,17,16,0.80
2007,11,12,17,17,1.40
2007,11,12,17,18,1.50
2007,11,12,17,19,4.30
2007,11,12,17,20,2.50
2007,11,12,17,21,7.40
2007,11,12,17,22,6.90
2007,11,12,17,23,1.70
2007,11,12,17,24,2.30
2007,11,12,17,25,0.20
2007,11,12,17,26,2.90
2007,11,12,17,27,3.40
2007,11,12,17,28,1.30
2007,11,12,17,29,2.20
2007,11,12,17,30,2.70
2007,11,12,17,31,1.20
2007,11,12,17,32,0.70
2007,11,12,17,33,0.50
2007,11,12,17,34,1.90
2007,11,12,17,35,1.40
2007,11,12,17,36,0.20
2007,11,12,17,37,1.40
2007,11,12,17,38,3.50
2007,11,12,17,39,0.90
2007,11,12,17,40,0.30
2007,11,12,17,41,3.00
2007,11,12,17,42,4.10
2007,11,12,17,43,3.00
2007,11,12,17,44,2.00
2007,11,12,17,45,1.90
2007,11,12,17,46,2.90
2007,11,12,17,47,2.40
2007,11,12,17,48,1.30
2007,11,12,17,49,1.50
2007,11,12,17,50,3.10
2007,11,12,17,51,2.20
2007,11,12,17,52,8.10
2007,11,12,17,53,2.70
2007,11,12,17,54,1.30
2007,11,12,17,55,2.10
2007,11,12,17,56,2.30
2007,11,12,17,57,2.80
2007,11,12,17,58,2.20
2007,11,12,17,59,1.20
2007,11,12,18,00,3.20
2007,11,12,18,01,2.70
2007,11,12,18,02,2.60
2007,11,12,18,03,2.00
2007,11,12,18,04,3.20
2007,11,12,18,05,4.00
2007,11,12,18,06,1.40
2007,11,12,18,07,3.80
2007,11,12,18,08,2.80
2007,11,12,18,09,1.90
2007,11,12,18,10,2.70
2007,11,12,18,11,3.20
2007,11,12,18,12,0.40
2007,11,12,18,13,2.60
2007,11,12,18,14,4.00
2007,11,12,18,15,2.50
2007,11,12,18,16,2.90
2007,11,12,18,17,1.70
2007,11,12,18,18,2.60
2007,11,12,18,19,2.00
2007,11,12,18,20,1.30
2007,11,12,18,21,0.30
2007,11,12,18,22,0.90
2007,11,12,18,23,2.50
2007,11,12,18,24,0.40
2007,11,12,18,25,1.20
2007,11,12,18,26,2.10
2007,11,12,18,27,3.10
2007,11,12,18,28,2.80
2007,11,12,18,29,2.60
2007,11,12,18,30,1.60
2007,11,12,18,31,1.90
2007,11,12,18,32,3.00
2007,11,12,18,33,3.60
2007,11,12,18,34,6.40
2007,11,12,18,35,2.80
2007,11,12,18,36,2.60
2007,11,12,18,37,4.70
2007,11,12,18,38,2.00
2007,11,12,18,39,3.60
2007,11,12,18,40,0.20
2007,11,12,18,41,1.40
2007,11,12,18,42,1.90
2007,11,12,18,43,4.60
2007,11,12,18,44,5.20
2007,11,12,18,45,2.70
2007,11,12,18,46,0.50
2007,11,12,18,47,5.00
2007,11,12,18,48,6.90
2007,11,12,18,49,5.70
2007,11,12,18,50,6.60
2007,11,12,18,51,6.70
2007,11,12,18,52,3.80
2007,11,12,18,53,5.90
2007,11,12,18,54,6.50
2007,11,12,18,55,6.90
2007,11,12,18,56,4.20
2007,11,12,18,57,8.00
2007,11,12,18,58,7.80
2007,11,12,18,59,6.70
2007,11,12,19,00,4.00
2007,11,12,19,01,7.40
2007,11,12,19,02,4.80
2007,11,12,19,03,5.50
2007,11,12,19,04,9.10
2007,11,12,19,05,3.60
2007,11,12,19,06,3.90
2007,11,12,19,07,6.50